Showing default

KINEIS-4D, 63302

Orbit data source: Space-Track

KINEIS-4D, 63302 is a French payload satellite in SSO that was launched on Tue, 18 Mar 2025 UTC via an ELECTRON launch vehicle from the Rocket Lab Launch Complex (RLLC). Payload-class satellites include a variety of spacecraft equipped with specific instruments for various scientific and technological missions. These include communications satellites like Starlink; space stations such as the ISS; scientific satellites like the Hubble; Earth observation satellites from companies like Planet Labs, Umbra, and HawkEye 360; GPS; miniature CubeSats for education and research; and military/defense satellites.

Loading next visibility...
Identifier
63302, 2025-056C
Orbit
SSO
Last TLE update
3 hours ago
Origin
Manufacturer
KINEIS
Mission
Operational Commercial Communications
Bus & Motor
CUBESAT 16U, Unknown motor
Mass
28 kg wet, 28 kg dry
Launch date (UTC)
2025-03-18 (4 months ago)
Launch vehicle
ELECTRON
Launch site
Rocket Lab Launch Complex (RLLC)
Object type
Payload
Rocket body
Debris
Shape & HBR
Box + 2 Pan + 1 Ant, 0.8 m
Radar Cross Section
0.229 m², Medium (>0.1 m² and < 1m²)

Expand to show TLE details & history

TLE from 3 hours ago
0 KINEIS-4D
1 63302U 25056C   25199.84473903  .00001504  00000-0  24557-3 0  9992
2 63302  97.9856 325.1258 0001048  16.9297 343.1945 14.72331341 18088
Epoch: 2025-07-18T20:16Z
TLE epoch observation values (Epoch: 2025-07-18T20:16:25.452Z)
Latitude
-0.00003°
Longitude
84.12939°
Altitude
655.938 km
Speed
7.53 km/s
True Right ascension
21h 40m 30s
True Declination
0° 00' 00"
Sunlit
Object was in full shadow at epoch
Visualization orbit readout
Latitude
-18.95229°
Longitude
87.00563°
Altitude
660.373 km
Speed
7.526 km/s
Apparent Right ascension
22h 52m 05s
Apparent Declination
-29° 56' 07"
Sunlit
Object is in full shadow
Visualization observer readout
Local Sidereal Time
12:14:35
Azimuth
65.724° ENE
Elevation
-70.435°
Doppler factor
1
Orbital elements
Apogee altitude
651.427 km
Perigee altitude
649.954 km
Semi-major axis
7,028.827 km
Eccentricity
0.0001
Inclination
97.9856°
RAAN
325.1258°
Arg. of periapsis
16.9297°
True anomaly
343.19103°
Mean anomaly
343.1945°
Eccentric anomaly
343.19276°
Mean motion
3.68315 °/min
Orbital period
97.74 mins
BSTAR
0.00024557
Loading maneuver chart data...
Loading SW <> Apogee altitude chart data...
Loading historical data...
Loading historical data...
Loading historical data...
Loading historical data...
Loading historical data...
Loading historical data...
Loading historical data...
|